AUA297W LOWW-EBBR

Flight info

Callsign AUA297W
Flight time 1h 20m
Altitude 36000
Route MEDIX DCT RENKA DCT INBED DCT TEKTU DCT TESGA DCT UMUPU T880 ADMUM/N0391F240 T880 BATTY
Aircraft A320/M-SDE3FGHIRWY/LB1

Departure

Time 2026-05-01 10:39
Airport Vienna International Airport (LOWW)

Arrival

Time 2026-05-01 12:00
Airport Brussels Airport (EBBR)
Time Latitude Longitude Altitude Speed Heading
2026-05-01 10:26 48.11423 16.57127 609 ft 0 kts 204°
2026-05-01 10:36 48.11392 16.57106 616 ft 15 kts 204°
2026-05-01 10:36 48.11309 16.57059 609 ft 9 kts 181°
2026-05-01 10:36 48.11251 16.57148 612 ft 16 kts 116°
2026-05-01 10:37 48.11205 16.57290 609 ft 15 kts 116°
2026-05-01 10:37 48.11072 16.57524 616 ft 12 kts 203°
2026-05-01 10:37 48.10991 16.57462 609 ft 15 kts 207°
2026-05-01 10:38 48.10961 16.57390 612 ft 8 kts 290°
2026-05-01 10:38 48.10974 16.57351 616 ft 0 kts 296°
2026-05-01 10:38 48.11066 16.57068 612 ft 67 kts 296°
2026-05-01 10:39 48.11366 16.56148 618 ft 127 kts 296°
2026-05-01 10:39 48.11824 16.54740 669 ft 167 kts 298°
2026-05-01 10:39 48.12271 16.53148 1372 ft 168 kts 282°
2026-05-01 10:39 48.12241 16.51320 1967 ft 186 kts 264°
2026-05-01 10:40 48.12093 16.50022 2303 ft 197 kts 263°
2026-05-01 10:40 48.11810 16.47923 2932 ft 213 kts 261°
2026-05-01 10:40 48.11429 16.45703 3520 ft 230 kts 256°
2026-05-01 10:40 48.10956 16.43297 4048 ft 252 kts 256°
2026-05-01 10:41 48.10463 16.40679 4690 ft 267 kts 257°
2026-05-01 10:41 48.09975 16.37956 5519 ft 275 kts 260°
2026-05-01 10:41 48.09873 16.32189 7211 ft 282 kts 274°
2026-05-01 10:42 48.09923 16.29234 8034 ft 287 kts 274°
2026-05-01 10:42 48.09979 16.26221 8860 ft 292 kts 275°
2026-05-01 10:42 48.10038 16.23163 9693 ft 296 kts 275°
2026-05-01 10:42 48.10278 16.20092 10469 ft 299 kts 287°
2026-05-01 10:43 48.10938 16.17092 10922 ft 313 kts 294°
2026-05-01 10:43 48.11729 16.13924 11160 ft 337 kts 294°
2026-05-01 10:43 48.12584 16.10526 11346 ft 360 kts 294°
2026-05-01 10:43 48.13488 16.06906 11505 ft 381 kts 293°
2026-05-01 10:44 48.14417 16.03139 12004 ft 389 kts 293°
2026-05-01 10:44 48.15339 15.99362 12647 ft 393 kts 293°
2026-05-01 10:44 48.16278 15.95497 13339 ft 396 kts 293°
2026-05-01 10:44 48.17232 15.91552 14032 ft 399 kts 293°
2026-05-01 10:45 48.18169 15.87681 14644 ft 402 kts 293°
2026-05-01 10:45 48.19129 15.83725 15229 ft 405 kts 293°
2026-05-01 10:45 48.20097 15.79747 15790 ft 409 kts 293°
2026-05-01 10:45 48.21078 15.75716 16349 ft 412 kts 294°
2026-05-01 10:46 48.22060 15.71665 16897 ft 416 kts 294°
2026-05-01 10:46 48.23048 15.67565 17430 ft 420 kts 294°
2026-05-01 10:46 48.24038 15.63432 17940 ft 423 kts 294°
2026-05-01 10:46 48.25040 15.59253 18463 ft 427 kts 294°
2026-05-01 10:47 48.26048 15.55038 18923 ft 430 kts 294°
2026-05-01 10:47 48.27059 15.50799 19352 ft 433 kts 294°
2026-05-01 10:47 48.28076 15.46524 19764 ft 436 kts 294°
2026-05-01 10:47 48.29101 15.42222 20166 ft 439 kts 294°
2026-05-01 10:48 48.29933 15.37762 20562 ft 446 kts 288°
2026-05-01 10:48 48.30662 15.33218 20952 ft 449 kts 288°
2026-05-01 10:48 48.31396 15.28640 21321 ft 452 kts 288°
2026-05-01 10:48 48.32133 15.24038 21689 ft 454 kts 288°
2026-05-01 10:49 48.32873 15.19417 22035 ft 457 kts 288°
2026-05-01 10:49 48.33618 15.14751 22362 ft 460 kts 288°
2026-05-01 10:49 48.34364 15.10064 22696 ft 463 kts 288°
2026-05-01 10:49 48.35113 15.05348 23027 ft 466 kts 288°
2026-05-01 10:50 48.35871 15.00589 23345 ft 468 kts 288°
2026-05-01 10:50 48.36630 14.95801 23653 ft 471 kts 288°
2026-05-01 10:50 48.37386 14.90998 23948 ft 474 kts 288°
2026-05-01 10:50 48.38134 14.86222 24195 ft 476 kts 288°
2026-05-01 10:51 48.38891 14.81366 24443 ft 479 kts 288°
2026-05-01 10:51 48.39653 14.76475 24669 ft 481 kts 288°
2026-05-01 10:51 48.40420 14.71562 24890 ft 483 kts 288°
2026-05-01 10:51 48.41191 14.66622 25116 ft 486 kts 288°
2026-05-01 10:52 48.41958 14.61666 25339 ft 488 kts 288°
2026-05-01 10:52 48.42726 14.56668 25539 ft 490 kts 288°
2026-05-01 10:52 48.43492 14.51661 25725 ft 492 kts 288°
2026-05-01 10:52 48.44259 14.46628 25923 ft 494 kts 288°
2026-05-01 10:53 48.45024 14.41580 26219 ft 493 kts 288°
2026-05-01 10:53 48.45785 14.36548 26526 ft 493 kts 289°
2026-05-01 10:53 48.46547 14.31520 26820 ft 493 kts 289°
2026-05-01 10:53 48.47311 14.26476 27111 ft 493 kts 289°
2026-05-01 10:54 48.48072 14.21435 27399 ft 493 kts 289°
2026-05-01 10:54 48.48829 14.16399 27673 ft 493 kts 289°
2026-05-01 10:54 48.49584 14.11349 27977 ft 493 kts 289°
2026-05-01 10:54 48.50337 14.06301 28274 ft 494 kts 289°
2026-05-01 10:55 48.51088 14.01247 28579 ft 494 kts 289°
2026-05-01 10:55 48.51838 13.96184 28891 ft 494 kts 289°
2026-05-01 10:55 48.52584 13.91135 29220 ft 493 kts 289°
2026-05-01 10:55 48.53318 13.86149 29550 ft 493 kts 289°
2026-05-01 10:56 48.54059 13.81094 29895 ft 493 kts 289°
2026-05-01 10:56 48.54798 13.76028 30202 ft 493 kts 289°
2026-05-01 10:56 48.55537 13.70967 30525 ft 493 kts 289°
2026-05-01 10:56 48.56272 13.65920 30815 ft 492 kts 289°
2026-05-01 10:57 48.57002 13.60868 31104 ft 492 kts 289°
2026-05-01 10:57 48.57728 13.55834 31411 ft 490 kts 289°
2026-05-01 10:57 48.58600 13.50890 31729 ft 482 kts 296°
2026-05-01 10:57 48.59881 13.46273 32033 ft 473 kts 304°
2026-05-01 10:58 48.61350 13.41831 32330 ft 472 kts 304°
2026-05-01 10:58 48.62813 13.37397 32638 ft 471 kts 304°
2026-05-01 10:58 48.64269 13.32965 32954 ft 470 kts 304°
2026-05-01 10:58 48.65717 13.28534 33253 ft 470 kts 303°
2026-05-01 10:59 48.67162 13.24105 33550 ft 469 kts 303°
2026-05-01 10:59 48.68602 13.19680 33833 ft 468 kts 303°
2026-05-01 10:59 48.70039 13.15253 34113 ft 468 kts 303°
2026-05-01 10:59 48.71450 13.10892 34394 ft 467 kts 303°
2026-05-01 11:00 48.72877 13.06473 34623 ft 467 kts 303°
2026-05-01 11:00 48.74302 13.02062 34870 ft 466 kts 303°
2026-05-01 11:00 48.75726 12.97652 35133 ft 465 kts 303°
2026-05-01 11:00 48.77142 12.93261 35392 ft 463 kts 303°
2026-05-01 11:01 48.78553 12.88876 35640 ft 462 kts 303°
2026-05-01 11:01 48.79958 12.84509 35891 ft 460 kts 303°
2026-05-01 11:01 48.81357 12.80150 36132 ft 459 kts 302°
2026-05-01 11:01 48.82752 12.75797 36342 ft 458 kts 302°
2026-05-01 11:02 48.84145 12.71443 36413 ft 460 kts 302°
2026-05-01 11:02 48.86950 12.62643 36416 ft 464 kts 302°
2026-05-01 11:03 48.89756 12.53797 36416 ft 465 kts 302°
2026-05-01 11:03 48.92561 12.44922 36417 ft 465 kts 302°
2026-05-01 11:04 48.95361 12.36039 36415 ft 466 kts 302°
2026-05-01 11:04 48.98165 12.27133 36411 ft 466 kts 302°
2026-05-01 11:05 49.00955 12.18226 36406 ft 466 kts 302°
2026-05-01 11:05 49.03733 12.09311 36396 ft 466 kts 302°
2026-05-01 11:06 49.06484 12.00435 36398 ft 466 kts 302°
2026-05-01 11:06 49.09224 11.91544 36414 ft 452 kts 302°
2026-05-01 11:07 49.11821 11.83083 36399 ft 430 kts 302°
2026-05-01 11:07 49.13086 11.78980 36400 ft 426 kts 302°
2026-05-01 11:07 49.15606 11.70826 36398 ft 424 kts 302°
2026-05-01 11:08 49.18112 11.62686 36399 ft 423 kts 302°
2026-05-01 11:09 49.21851 11.50439 36404 ft 423 kts 302°
2026-05-01 11:09 49.24330 11.42274 36394 ft 423 kts 301°
2026-05-01 11:10 49.28036 11.30008 36394 ft 423 kts 301°
2026-05-01 11:10 49.30483 11.21879 36386 ft 423 kts 301°
2026-05-01 11:11 49.32940 11.13705 36391 ft 423 kts 301°
2026-05-01 11:11 49.35391 11.05500 36394 ft 423 kts 301°
2026-05-01 11:12 49.37840 10.97304 36394 ft 421 kts 303°
2026-05-01 11:12 49.41047 10.89977 36394 ft 409 kts 316°
2026-05-01 11:13 49.44722 10.83286 36392 ft 409 kts 316°
2026-05-01 11:13 49.48375 10.76568 36388 ft 409 kts 316°
2026-05-01 11:14 49.52030 10.69834 36377 ft 410 kts 316°
2026-05-01 11:14 49.55678 10.63103 36375 ft 410 kts 315°
2026-05-01 11:15 49.59329 10.56344 36376 ft 409 kts 315°
2026-05-01 11:15 49.62974 10.49592 36375 ft 410 kts 315°
2026-05-01 11:16 49.66615 10.42824 36378 ft 410 kts 315°
2026-05-01 11:16 49.70226 10.36071 36382 ft 410 kts 315°
2026-05-01 11:17 49.73860 10.29270 36387 ft 410 kts 315°
2026-05-01 11:17 49.77493 10.22477 36385 ft 410 kts 315°
2026-05-01 11:18 49.81121 10.15664 36393 ft 410 kts 314°
2026-05-01 11:18 49.84746 10.08832 36388 ft 410 kts 314°
2026-05-01 11:19 49.88357 10.01994 36392 ft 410 kts 314°
2026-05-01 11:19 49.91945 9.95182 36385 ft 410 kts 314°
2026-05-01 11:20 49.95554 9.88328 36384 ft 410 kts 314°
2026-05-01 11:20 49.99167 9.81475 36379 ft 410 kts 314°
2026-05-01 11:21 50.02773 9.74597 36382 ft 410 kts 314°
2026-05-01 11:21 50.06363 9.67701 36376 ft 410 kts 313°
2026-05-01 11:22 50.09955 9.60803 36374 ft 410 kts 313°
2026-05-01 11:22 50.13546 9.53919 36371 ft 410 kts 313°
2026-05-01 11:23 50.16535 9.48166 36372 ft 410 kts 313°
2026-05-01 11:23 50.20127 9.41228 36368 ft 410 kts 313°
2026-05-01 11:24 50.23707 9.34280 36368 ft 410 kts 313°
2026-05-01 11:25 50.29065 9.23843 36312 ft 410 kts 313°
2026-05-01 11:25 50.34055 9.13148 36390 ft 406 kts 299°
2026-05-01 11:26 50.36860 9.00691 36384 ft 407 kts 289°
2026-05-01 11:27 50.38538 8.92233 36382 ft 406 kts 289°
2026-05-01 11:27 50.40206 8.83790 36381 ft 406 kts 289°
2026-05-01 11:28 50.41869 8.75334 36377 ft 405 kts 288°
2026-05-01 11:28 50.43519 8.66880 36376 ft 405 kts 288°
2026-05-01 11:29 50.45297 8.53912 36369 ft 406 kts 280°
2026-05-01 11:30 50.46604 8.40774 36368 ft 406 kts 280°
2026-05-01 11:30 50.47466 8.32012 36367 ft 406 kts 280°
2026-05-01 11:31 50.48330 8.23243 36366 ft 406 kts 280°
2026-05-01 11:31 50.49182 8.14471 36366 ft 406 kts 279°
2026-05-01 11:32 50.50025 8.05764 36367 ft 406 kts 279°
2026-05-01 11:32 50.50870 7.96989 36363 ft 406 kts 279°
2026-05-01 11:33 50.51703 7.88220 36363 ft 406 kts 279°
2026-05-01 11:33 50.52525 7.79432 36360 ft 406 kts 279°
2026-05-01 11:34 50.53348 7.70638 36360 ft 406 kts 279°
2026-05-01 11:34 50.54164 7.61848 36353 ft 406 kts 279°
2026-05-01 11:35 50.54975 7.53053 36346 ft 406 kts 278°
2026-05-01 11:35 50.55753 7.44373 36344 ft 406 kts 276°
2026-05-01 11:36 50.55926 7.35502 36336 ft 406 kts 271°
2026-05-01 11:36 50.55993 7.26627 36331 ft 405 kts 271°
2026-05-01 11:37 50.56058 7.17741 36329 ft 405 kts 271°
2026-05-01 11:37 50.55972 7.08872 36320 ft 405 kts 268°
2026-05-01 11:38 50.55729 7.00062 36319 ft 406 kts 267°
2026-05-01 11:38 50.55487 6.91187 36309 ft 406 kts 268°
2026-05-01 11:39 50.55269 6.82324 36300 ft 406 kts 268°
2026-05-01 11:39 50.55054 6.73451 36292 ft 406 kts 268°
2026-05-01 11:40 50.55486 6.64626 36288 ft 406 kts 281°
2026-05-01 11:40 50.56564 6.55898 36284 ft 406 kts 281°
2026-05-01 11:41 50.57616 6.47218 36281 ft 407 kts 280°
2026-05-01 11:41 50.58658 6.38477 36280 ft 407 kts 280°
2026-05-01 11:42 50.59693 6.29720 36275 ft 407 kts 280°
2026-05-01 11:42 50.60731 6.20964 36275 ft 407 kts 279°
2026-05-01 11:43 50.61760 6.12208 36273 ft 407 kts 279°
2026-05-01 11:43 50.62779 6.03423 36271 ft 407 kts 279°
2026-05-01 11:44 50.64307 5.90258 36271 ft 407 kts 279°
2026-05-01 11:44 50.65966 5.81736 36269 ft 408 kts 294°
2026-05-01 11:45 50.68522 5.73732 36259 ft 409 kts 296°
2026-05-01 11:45 50.71098 5.65730 36259 ft 409 kts 296°
2026-05-01 11:46 50.73661 5.57702 36261 ft 410 kts 295°
2026-05-01 11:46 50.76208 5.49704 36260 ft 410 kts 295°
2026-05-01 11:47 50.78769 5.41650 36229 ft 411 kts 295°
2026-05-01 11:47 50.80069 5.37557 35069 ft 426 kts 295°
2026-05-01 11:47 50.81430 5.33256 33567 ft 447 kts 295°
2026-05-01 11:48 50.82841 5.28796 32264 ft 459 kts 296°
2026-05-01 11:48 50.84277 5.24246 31163 ft 465 kts 296°
2026-05-01 11:48 50.85726 5.19648 30066 ft 469 kts 296°
2026-05-01 11:48 50.87013 5.14902 29103 ft 467 kts 287°
2026-05-01 11:49 50.87759 5.09973 28496 ft 458 kts 277°
2026-05-01 11:49 50.88054 5.04980 27791 ft 451 kts 273°
2026-05-01 11:49 50.88281 5.00072 26658 ft 443 kts 273°
2026-05-01 11:49 50.88494 4.95293 25571 ft 437 kts 273°
2026-05-01 11:50 50.88702 4.90519 24525 ft 432 kts 273°
2026-05-01 11:50 50.88907 4.85748 23399 ft 423 kts 273°
2026-05-01 11:50 50.89101 4.81210 21933 ft 414 kts 272°
2026-05-01 11:50 50.89290 4.76712 20539 ft 405 kts 272°
2026-05-01 11:51 50.89474 4.72301 19252 ft 397 kts 271°
2026-05-01 11:51 50.89652 4.67985 17968 ft 388 kts 271°
2026-05-01 11:51 50.89826 4.63771 16675 ft 379 kts 271°
2026-05-01 11:51 50.89995 4.59638 15467 ft 371 kts 271°
2026-05-01 11:52 50.90158 4.55613 14107 ft 367 kts 271°
2026-05-01 11:52 50.90348 4.51565 12461 ft 368 kts 274°
2026-05-01 11:52 50.90679 4.47561 11126 ft 362 kts 276°
2026-05-01 11:52 50.91071 4.43744 10317 ft 342 kts 277°
2026-05-01 11:53 50.91482 4.40085 9586 ft 333 kts 277°
2026-05-01 11:53 50.91887 4.36504 8513 ft 333 kts 277°
2026-05-01 11:53 50.92289 4.32900 7221 ft 329 kts 277°
2026-05-01 11:53 50.92665 4.29388 6321 ft 313 kts 277°
2026-05-01 11:54 50.92989 4.26071 5573 ft 297 kts 276°
2026-05-01 11:54 50.93248 4.22867 4995 ft 287 kts 270°
2026-05-01 11:54 50.93039 4.19835 4588 ft 269 kts 252°
2026-05-01 11:54 50.92253 4.17292 4202 ft 249 kts 221°
2026-05-01 11:55 50.90854 4.15909 3830 ft 232 kts 194°
2026-05-01 11:55 50.89295 4.15668 3446 ft 222 kts 173°
2026-05-01 11:55 50.87820 4.16377 3140 ft 221 kts 152°
2026-05-01 11:55 50.86697 4.18006 2953 ft 221 kts 122°
2026-05-01 11:56 50.86265 4.20307 2793 ft 221 kts 91°
2026-05-01 11:56 50.86580 4.22664 2641 ft 220 kts 74°
2026-05-01 11:56 50.86922 4.24988 2430 ft 211 kts 82°
2026-05-01 11:56 50.87192 4.27225 2243 ft 203 kts 81°
2026-05-01 11:57 50.87455 4.29402 2134 ft 199 kts 82°
2026-05-01 11:57 50.87622 4.30807 2073 ft 193 kts 82°
2026-05-01 11:57 50.87946 4.33578 1793 ft 191 kts 82°
2026-05-01 11:57 50.88182 4.35636 1518 ft 188 kts 82°
2026-05-01 11:58 50.88407 4.37607 1273 ft 174 kts 83°
2026-05-01 11:58 50.88615 4.39425 1052 ft 159 kts 82°
2026-05-01 11:58 50.89072 4.42568 634 ft 142 kts 71°
2026-05-01 11:59 50.89442 4.43960 422 ft 135 kts 70°
2026-05-01 11:59 50.89821 4.45317 242 ft 130 kts 70°
2026-05-01 11:59 50.90191 4.46605 126 ft 122 kts 67°
2026-05-01 12:00 50.90629 4.48121 119 ft 38 kts 65°
2026-05-01 12:00 50.90658 4.48311 119 ft 10 kts 114°
2026-05-01 12:00 50.90564 4.48553 116 ft 13 kts 121°
2026-05-01 12:01 50.90537 4.48653 115 ft 10 kts 100°
2026-05-01 12:01 50.90560 4.48778 113 ft 14 kts 66°
2026-05-01 12:01 50.90569 4.48834 114 ft 2 kts 112°
2026-05-01 12:01 50.90548 4.48861 114 ft 5 kts 152°
2026-05-01 12:02 50.90522 4.48881 117 ft 4 kts 155°
2026-05-01 12:02 50.90509 4.48890 117 ft 0 kts 156°
2026-05-01 12:02 50.90508 4.48891 117 ft 2 kts 156°
2026-05-01 12:02 50.90495 4.48900 120 ft 0 kts 154°